This is the latest recevied weather packets stored in our database for station/object K1BES. If no packets are shown the sender has not sent any weather packets the latest 10 day(s).
| Time | Temp. | Humidity | Pressure | Rain* | Wind** | Luminosity | Snow |
|---|---|---|---|---|---|---|---|
| 1788285617 | 32.78° C | 70% | 1018 hPa | 0 mm | - | 1126 W/m² | - |
| 1788285311 | 32.22° C | 72% | 1018 hPa | 0 mm | - | 1125 W/m² | - |
| 1788285010 | 32.22° C | 72% | 1018.1 hPa | 0 mm | - | 1138 W/m² | - |
| 1788284707 | 32.22° C | 71% | 1018.1 hPa | 0 mm | - | 402 W/m² | - |
| 1788284402 | 32.22° C | 72% | 1017.9 hPa | 0 mm | - | 1219 W/m² | - |
| 1788284097 | 31.11° C | 74% | 1018 hPa | 0 mm | - | 1156 W/m² | - |
| 1788283793 | 31.11° C | 76% | 1018.3 hPa | 0 mm | - | 275 W/m² | - |
| 1788283488 | 30.56° C | 76% | 1018.2 hPa | 0 mm | - | 878 W/m² | - |
| 1788283186 | 31.11° C | 75% | 1018.2 hPa | 0 mm | - | 157 W/m² | - |
| 1788282885 | 31.67° C | 74% | 1018.1 hPa | 0 mm | - | 171 W/m² | - |
| 1788282584 | 31.67° C | 71% | 1018.4 hPa | 0 mm | - | 275 W/m² | - |
| 1788282279 | 33.33° C | 68% | 1018.3 hPa | 0 mm | - | 196 W/m² | - |
| 1788281978 | 33.33° C | 67% | 1018.4 hPa | 0 mm | - | 1066 W/m² | - |
| 1788281673 | 33.33° C | 63% | 1018.4 hPa | 0 mm | - | 1032 W/m² | - |
| 1788281370 | 33.33° C | 64% | 1018.5 hPa | 0 mm | - | 1008 W/m² | - |
| 1788281070 | 32.78° C | 65% | 1018.5 hPa | 0 mm | - | 1017 W/m² | - |
| 1788280765 | 32.22° C | 66% | 1018.6 hPa | 0 mm | - | 949 W/m² | - |
| 1788280460 | 32.22° C | 66% | 1018.8 hPa | 0 mm | - | 736 W/m² | - |
| 1788280159 | 32.78° C | 65% | 1018.7 hPa | 0 mm | - | 809 W/m² | - |
| 1788279854 | 32.22° C | 69% | 1018.9 hPa | 0 mm | - | 799 W/m² | - |
| 1788279554 | 32.22° C | 67% | 1018.8 hPa | 0 mm | - | 200 W/m² | - |
| 1788279253 | 31.67° C | 64% | 1018.8 hPa | 0 mm | - | 971 W/m² | - |
| 1788278948 | 31.11° C | 71% | 1019.1 hPa | 0 mm | - | 946 W/m² | - |
| 1788278644 | 31.67° C | 69% | 1019.1 hPa | 0 mm | - | 147 W/m² | - |
| 1788278343 | 31.67° C | 71% | 1019.2 hPa | 0 mm | - | 999 W/m² | - |
* Rain latest hour (hover to see other rain measurements)
** Current wind speed in m/s (hover to see current wind gust speed)